Bellefontaine, OH

12:05 AM EDT on July 28, 2016 (GMT -0400)
Bellefontaine

Weather History for KEDJ - August, 2013

Change the Weather History Date:

Tuesday, August 13, 2013

  Actual Average (KDAY) Record (KDAY)
Temperature  
Mean Temperature 61 °F 73 °F  
Max Temperature 71 °F 83 °F 98 °F (1936)
Min Temperature 50 °F 63 °F 44 °F (1964)
Degree Days  
Heating Degree Days 4 0  
Month to date heating degree days 0  
Since 1 June heating degree days 22  
Since 1 July heating degree days 0  
Cooling Degree Days 0 8  
Month to date cooling degree days 110  
Year to date cooling degree days 649  
Since 1 June cooling degree days 579  
Growing Degree Days 11 (Base 50)    
Moisture  
Dew Point 57 °F    
Average Humidity 81    
Maximum Humidity 100    
Minimum Humidity 46    
Precipitation  
Precipitation 0.00 in 0.09 in 1.12 in (1939)
Month to date precipitation 1.21  
Year to date precipitation 26.53  
Snow  
Snow 0.00 in 0.00 in 0.00 in ()
Month to date snowfall 0.0  
Since 1 June snowfall 0.0  
Since 1 July snowfall 0.0  
Snow Depth -    
Sea Level Pressure  
Sea Level Pressure 29.94 in    
Wind  
Wind Speed 7 mph (NNW)    
Max Wind Speed 17 mph    
Max Gust Speed 24 mph    
Visibility 9 miles    
Events      
T = Trace of Precipitation, MM = Missing Value Source: NWS Daily Summary

Daily Weather History Graph

Daily Weather History Graph

Search for Another Location

Airport or City:

Trip Planner

Search our weather history database for the weather conditions in past years. The results will help you decide how hot, cold, wet, or windy it might be!

Date:

Astronomy

Aug. 13, 2013 Rise Set
Actual Time 6:44 AM EDT 8:34 PM EDT
Civil Twilight 6:15 AM EDT 9:04 PM EDT
Nautical Twilight 5:39 AM EDT 9:39 PM EDT
Astronomical Twilight 5:00 AM EDT 10:17 PM EDT
Moon 1:39 PM EDT (8/13) No Moon Set
Length of Visible Light 14h 49m
Length of Day
13h 50m
Waxing Crescent, 41% of the Moon is Illuminated
Aug 13
Waxing Crescent
Aug 14
First Quarter
Aug 20
Full
Aug 28
Last Quarter
Sep 5
New

Hourly Weather History & Observations

Time (EDT) Temp. Dew Point Humidity Pressure Visibility Wind Dir Wind Speed Gust Speed Precip Events Conditions
12:15 AM 66.2 °F 64.4 °F 94% 29.88 in 10.0 mi SSE 4.6 mph - 0.00 in   Clear
12:35 AM 66.2 °F 64.4 °F 94% 29.88 in 10.0 mi South 4.6 mph - 0.00 in   Partly Cloudy
12:55 AM 66.2 °F 64.4 °F 94% 29.87 in 10.0 mi SSW 4.6 mph - 0.00 in   Scattered Clouds
1:15 AM 66.2 °F 64.4 °F 94% 29.87 in 10.0 mi SSW 5.8 mph - 0.00 in   Scattered Clouds
1:35 AM 66.2 °F 64.4 °F 94% 29.86 in 10.0 mi SSW 3.5 mph - 0.00 in   Partly Cloudy
1:55 AM 66.2 °F 64.4 °F 94% 29.86 in 10.0 mi Calm Calm - 0.00 in   Clear
2:15 AM 64.4 °F 64.4 °F 100% 29.85 in 10.0 mi SW 4.6 mph - 0.00 in   Clear
2:35 AM 64.4 °F 64.4 °F 100% 29.85 in 10.0 mi WSW 4.6 mph - 0.00 in   Clear
2:55 AM 66.2 °F 66.2 °F 100% 29.84 in 10.0 mi West 3.5 mph - 0.00 in   Clear
3:15 AM 64.4 °F 64.4 °F 100% 29.84 in 8.0 mi West 3.5 mph - 0.00 in   Clear
3:35 AM 64.4 °F 64.4 °F 100% 29.85 in 6.0 mi Calm Calm - 0.00 in   Clear
3:55 AM 64.4 °F 64.4 °F 100% 29.85 in 5.0 mi WNW 4.6 mph - 0.00 in   Partly Cloudy
4:15 AM 64.4 °F 64.4 °F 100% 29.85 in 5.0 mi NW 3.5 mph - 0.00 in   Partly Cloudy
4:35 AM 64.4 °F 64.4 °F 100% 29.86 in 6.0 mi NW 3.5 mph - 0.00 in   Scattered Clouds
4:55 AM 64.4 °F 64.4 °F 100% 29.86 in 8.0 mi NNW 4.6 mph - 0.00 in   Partly Cloudy
5:15 AM 64.4 °F 64.4 °F 100% 29.86 in 8.0 mi Calm Calm - 0.00 in   Clear
5:35 AM 62.6 °F 62.6 °F 100% 29.86 in 7.0 mi Calm Calm - 0.00 in   Scattered Clouds
5:55 AM 62.6 °F 62.6 °F 100% 29.87 in 6.0 mi NNW 3.5 mph - 0.00 in   Scattered Clouds
6:15 AM 64.4 °F 64.4 °F 100% 29.87 in 6.0 mi NNW 8.1 mph - 0.00 in   Mostly Cloudy
6:35 AM 64.4 °F 64.4 °F 100% 29.87 in 6.0 mi North 5.8 mph - 0.00 in   Mostly Cloudy
6:55 AM 62.6 °F 62.6 °F 100% 29.88 in 3.0 mi North 4.6 mph - 0.00 in   Mostly Cloudy
7:15 AM 62.6 °F 62.6 °F 100% 29.89 in 3.0 mi North 4.6 mph - 0.00 in   Scattered Clouds
7:35 AM 62.6 °F 62.6 °F 100% 29.89 in 3.0 mi NNW 5.8 mph - 0.00 in   Partly Cloudy
7:55 AM 62.6 °F 62.6 °F 100% 29.89 in 5.0 mi North 8.1 mph - 0.00 in   Mostly Cloudy
8:15 AM 62.6 °F 62.6 °F 100% 29.91 in 7.0 mi North 11.5 mph - 0.00 in   Overcast
8:35 AM 62.6 °F 62.6 °F 100% 29.91 in 7.0 mi North 10.4 mph - 0.00 in   Overcast
8:55 AM 62.6 °F 62.6 °F 100% 29.92 in 8.0 mi North 10.4 mph - 0.00 in   Overcast
9:15 AM 62.6 °F 62.6 °F 100% 29.92 in 9.0 mi NNW 11.5 mph - 0.00 in   Overcast
9:35 AM 62.6 °F 62.6 °F 100% 29.93 in 9.0 mi NNW 11.5 mph - 0.00 in   Overcast
9:55 AM 62.6 °F 62.6 °F 100% 29.94 in 6.0 mi North 11.5 mph - 0.00 in   Overcast
10:15 AM 62.6 °F 62.6 °F 100% 29.95 in 7.0 mi North 11.5 mph - 0.00 in   Overcast
10:35 AM 62.6 °F 62.6 °F 100% 29.95 in 9.0 mi North 9.2 mph - 0.00 in   Overcast
10:55 AM 62.6 °F 62.6 °F 100% 29.96 in 10.0 mi NNW 8.1 mph - 0.00 in   Overcast
11:15 AM 64.4 °F 62.6 °F 94% 29.96 in 10.0 mi NNW 9.2 mph - 0.00 in   Overcast
11:35 AM 64.4 °F 60.8 °F 88% 29.97 in 10.0 mi North 10.4 mph - 0.00 in   Overcast
11:55 AM 66.2 °F 60.8 °F 83% 29.97 in 10.0 mi North 9.2 mph - 0.00 in   Overcast
12:15 PM 66.2 °F 60.8 °F 83% 29.97 in 10.0 mi NNW 12.7 mph - 0.00 in   Mostly Cloudy
12:35 PM 68.0 °F 57.2 °F 68% 29.97 in 10.0 mi North 11.5 mph - 0.00 in   Partly Cloudy
12:55 PM 69.8 °F 57.2 °F 64% 29.96 in 10.0 mi NNW 9.2 mph 17.3 mph 0.00 in   Partly Cloudy
1:15 PM 69.8 °F 57.2 °F 64% 29.96 in 10.0 mi NW 11.5 mph - 0.00 in   Partly Cloudy
1:35 PM 69.8 °F 53.6 °F 56% 29.97 in 10.0 mi NNW 15.0 mph 18.4 mph 0.00 in   Clear
1:55 PM 71.6 °F 57.2 °F 60% 29.96 in 10.0 mi NNW 10.4 mph 16.1 mph 0.00 in   Clear
2:15 PM 71.6 °F 55.4 °F 57% 29.97 in 10.0 mi NW 11.5 mph 18.4 mph 0.00 in   Clear
2:35 PM 71.6 °F 55.4 °F 57% 29.97 in 10.0 mi NNW 12.7 mph 17.3 mph 0.00 in   Partly Cloudy
2:55 PM 71.6 °F 55.4 °F 57% 29.97 in 10.0 mi NW 10.4 mph 17.3 mph 0.00 in   Partly Cloudy
3:15 PM 71.6 °F 53.6 °F 53% 29.97 in 10.0 mi NNW 15.0 mph - 0.00 in   Scattered Clouds
3:35 PM 71.6 °F 55.4 °F 57% 29.97 in 10.0 mi NW 11.5 mph - 0.00 in   Scattered Clouds
3:55 PM 71.6 °F 55.4 °F 57% 29.96 in 10.0 mi NW 11.5 mph 24.2 mph 0.00 in   Scattered Clouds
4:15 PM 71.6 °F 53.6 °F 53% 29.96 in 10.0 mi WNW 11.5 mph 20.7 mph 0.00 in   Partly Cloudy
4:35 PM 71.6 °F 51.8 °F 50% 29.97 in 10.0 mi NW 12.7 mph 20.7 mph 0.00 in   Clear
4:55 PM 69.8 °F 51.8 °F 53% 29.97 in 10.0 mi NW 15.0 mph 19.6 mph 0.00 in   Partly Cloudy
5:15 PM 69.8 °F 50.0 °F 49% 29.97 in 10.0 mi NW 13.8 mph 23.0 mph 0.00 in   Partly Cloudy
5:35 PM 69.8 °F 50.0 °F 49% 29.98 in 10.0 mi NNW 16.1 mph 21.9 mph 0.00 in   Partly Cloudy
5:55 PM 68.0 °F 50.0 °F 52% 29.97 in 10.0 mi NNW 10.4 mph - 0.00 in   Partly Cloudy
6:15 PM 69.8 °F 48.2 °F 46% 29.98 in 10.0 mi NW 17.3 mph 24.2 mph 0.00 in   Scattered Clouds
6:35 PM 69.8 °F 48.2 °F 46% 29.98 in 10.0 mi NW 11.5 mph 19.6 mph 0.00 in   Scattered Clouds
6:55 PM 66.2 °F 46.4 °F 49% 29.98 in 10.0 mi North 16.1 mph - 0.00 in   Partly Cloudy
7:15 PM 66.2 °F 46.4 °F 49% 29.99 in 10.0 mi North 13.8 mph - 0.00 in   Partly Cloudy
7:35 PM 64.4 °F 46.4 °F 52% 29.99 in 10.0 mi North 15.0 mph - 0.00 in   Clear
7:55 PM 62.6 °F 48.2 °F 59% 30.00 in 10.0 mi North 11.5 mph - 0.00 in   Clear
8:15 PM 62.6 °F 46.4 °F 55% 30.00 in 10.0 mi North 11.5 mph 17.3 mph 0.00 in   Clear
8:35 PM 60.8 °F 46.4 °F 59% 30.00 in 10.0 mi North 13.8 mph 18.4 mph 0.00 in   Clear
8:55 PM 59.0 °F 46.4 °F 63% 30.01 in 10.0 mi North 9.2 mph - 0.00 in   Clear
9:15 PM 57.2 °F 48.2 °F 72% 30.02 in 10.0 mi North 8.1 mph - 0.00 in   Clear
9:35 PM 55.4 °F 48.2 °F 77% 30.02 in 10.0 mi North 6.9 mph - 0.00 in   Clear
9:55 PM 53.6 °F 48.2 °F 82% 30.03 in 10.0 mi North 5.8 mph - 0.00 in   Clear
10:15 PM 53.6 °F 48.2 °F 82% 30.03 in 10.0 mi North 3.5 mph - 0.00 in   Clear
10:35 PM 51.8 °F 48.2 °F 88% 30.04 in 10.0 mi Calm Calm - 0.00 in   Clear
11:05 PM 51.8 °F 48.2 °F 88% 30.04 in 10.0 mi Calm Calm - 0.00 in   Clear
11:15 PM 51.8 °F 50.0 °F 94% 30.04 in 10.0 mi Calm Calm - 0.00 in   Clear
11:35 PM 51.8 °F 48.2 °F 88% 30.05 in 10.0 mi Calm Calm - 0.00 in   Clear
11:55 PM 50.0 °F 48.2 °F 94% 30.05 in 10.0 mi Calm Calm - 0.00 in   Clear